Change the Weather History Date:

Friday, November 25, 2011

  Actual Average Record
Temperature  
Mean Temperature 49 °F 49 °F  
Max Temperature 63 °F 58 °F 73 °F (1973)
Min Temperature 35 °F 41 °F 4 °F (1950)
Degree Days  
Heating Degree Days 16 16  
Month to date heating degree days 295  
Since 1 July heating degree days 453  
Moisture  
Dew Point 32 °F    
Average Humidity 56    
Maximum Humidity 92    
Minimum Humidity 27    
Precipitation  
Precipitation 0.00 in 0.19 in 2.38 in (1999)
Month to date precipitation 3.42  
Year to date precipitation 48.43  
Sea Level Pressure  
Sea Level Pressure 30.34 in    
Wind  
Wind Speed 1 mph (ESE)    
Max Wind Speed 7 mph    
Max Gust Speed -    
Visibility 10 miles    
Events      
T = Trace of Precipitation, MM = Missing Value Source: NWS Daily Summary

Daily Weather History Graph

Daily Weather History Graph

Search for Another Location

Airport or City:

Trip Planner

Search our weather history database for the weather conditions in past years. The results will help you decide how hot, cold, wet, or windy it might be!

Date:

Astronomy

Nov. 25, 2011 Rise Set
Actual Time 7:17 AM EST 5:26 PM EST
Civil Twilight 6:50 AM EST 5:53 PM EST
Nautical Twilight 6:19 AM EST 6:24 PM EST
Astronomical Twilight 5:49 AM EST 6:54 PM EST
Moon 7:42 AM EST (11/25) 5:56 PM EST (11/25)
Length of Visible Light 11h 03m
Length of Day
10h 09m
New Moon, 0% of the Moon is Illuminated
Nov 25
New Moon
Dec 2
First Quarter
Dec 10
Full
Dec 17
Last Quarter
Dec 24
New

Hourly Weather History & Observations

Time (EST) Temp. Dew Point Humidity Pressure Visibility Wind Dir Wind Speed Gust Speed Precip Events Conditions
12:53 AM 43.0 °F 34.0 °F 71% 30.36 in 10.0 mi Calm Calm - N/A   Clear
1:53 AM 39.9 °F 34.0 °F 79% 30.36 in 10.0 mi Calm Calm - N/A   Clear
3:53 AM 37.9 °F 34.0 °F 86% 30.37 in 10.0 mi Calm Calm - N/A   Clear
4:53 AM 39.0 °F 35.1 °F 86% 30.36 in 10.0 mi Calm Calm - N/A   Clear
5:53 AM 37.0 °F 33.1 °F 86% 30.37 in 10.0 mi Calm Calm - N/A   Clear
6:53 AM 35.1 °F 33.1 °F 92% 30.40 in 10.0 mi Calm Calm - N/A   Clear
7:53 AM 37.9 °F 33.1 °F 83% 30.40 in 10.0 mi Calm Calm - N/A   Clear
8:53 AM 44.1 °F 37.9 °F 79% 30.40 in 10.0 mi Calm Calm - N/A   Clear
9:53 AM 52.0 °F 36.0 °F 54% 30.41 in 10.0 mi Calm Calm - N/A   Clear
10:53 AM 55.9 °F 33.1 °F 42% 30.41 in 10.0 mi Calm Calm - N/A   Clear
11:53 AM 57.9 °F 32.0 °F 37% 30.38 in 10.0 mi SSE 3.5 mph - N/A   Clear
12:53 PM 61.0 °F 27.0 °F 27% 30.35 in 10.0 mi SSE 5.8 mph - N/A   Clear
2:53 PM 63.0 °F 28.0 °F 27% 30.29 in 10.0 mi SSE 6.9 mph - N/A   Clear
4:53 PM 62.1 °F 28.9 °F 29% 30.28 in 10.0 mi ESE 3.5 mph - N/A   Clear
5:53 PM 57.0 °F 30.9 °F 37% 30.29 in 10.0 mi Calm Calm - N/A   Clear
6:53 PM 55.9 °F 28.9 °F 36% 30.29 in 10.0 mi Calm Calm - N/A   Clear
7:53 PM 55.0 °F 28.9 °F 37% 30.30 in 10.0 mi ESE 3.5 mph - N/A   Clear
8:53 PM 54.0 °F 28.9 °F 38% 30.30 in 10.0 mi Calm Calm - N/A   Clear
9:53 PM 52.0 °F 30.0 °F 43% 30.30 in 10.0 mi Calm Calm - N/A   Clear
10:53 PM 51.1 °F 30.0 °F 44% 30.30 in 10.0 mi East 4.6 mph - N/A   Clear
11:53 PM 46.9 °F 30.9 °F 54% 30.30 in 10.0 mi ENE 4.6 mph - N/A   Partly Cloudy